TIME,DELAY(SENSOR),PRES,OXYGEN,RAWTEMP,T(OPTODE),TCPHASE,FLUOR,BETA(BETA700),BETA(BETA412),BETA(BETA440),CDOM,C(CSC),ED(ED412.20),ED(ED444.00),ED(ED489.60),ED(ED554.30),LU(LU412.10),LU(LU443.90),LU(LU489.70),LU(LU554.70),COMP,TILTX,TILTY,CHECK
1343013470,5809,898.9600219726562000,37.2625083923339840,555.5366210937500000,4.6241440773010250,55.8829307556152340,55,101,101,78,82,15562,0,0,0,0,2147122322,2147768777,2147568630,2147573366,36,3,13,4552
1343017066,5810,977.6300048828125000,42.1779785156250000,566.0170288085938000,4.2992668151855470,55.2516212463378900,55,100,102,78,83,15558,0,0,0,0,2147123922,2147775734,2147573824,2147573302,2898,3,13,13944
1343020666,5809,994.8900146484375000,42.8128395080566400,566.9503784179688000,4.2702898979187010,55.1702308654785160,55,99,102,78,84,15560,0,0,0,0,2147122971,2147773494,2147575149,2147571510,3545,3,13,58171
1343024266,5810,996.6599731445312000,43.5052413940429700,568.8668823242188000,4.2107682228088380,55.0895996093750000,55,100,101,78,83,15555,0,0,0,0,2147122925,2147771721,2147576859,2147572498,286,3,13,25436
1343027866,5808,1001.5599975585938000,43.2862205505371100,569.7039184570312000,4.1847610473632810,55.1272392272949200,55,100,101,78,84,15557,0,0,0,0,2147122870,2147773257,2147573769,2147574646,604,3,13,1594
1343031466,5808,1000.6099853515625000,43.3779106140136700,569.7794189453125000,4.1824169158935550,55.1158103942871100,55,101,102,77,82,15555,0,0,0,0,2147124882,2147771675,2147571940,2147572333,781,3,13,7841
1343035066,5809,1004.0100097656250000,43.0416793823242200,570.3876953125000000,4.1635107994079590,55.1697006225585940,54,98,102,78,84,15556,0,0,0,0,2147124973,2147770752,2147571657,2147577380,70,3,13,15956
1343038666,5812,1007.8699951171875000,43.0158386230468750,570.3767089843750000,4.1638531684875490,55.1763305664062500,55,101,100,78,82,15554,0,0,0,0,2147123483,2147773833,2147567296,2147567890,86,3,13,50827
1343042266,5809,1006.9400024414062000,43.1937294006347660,570.3223266601562000,4.1655449867248535,55.1512184143066400,55,116,101,77,83,15556,0,0,0,0,2147125366,2147773952,2147577444,2147570395,3517,3,13,16775
1343045866,5807,1009.7000122070312000,42.9527397155761700,570.3281250000000000,4.1653628349304200,55.1823997497558600,55,103,100,78,84,15547,0,0,0,0,2147123072,2147774738,2147578038,2147572928,316,3,13,35823
1343049466,5809,1015.2700195312500000,42.8352584838867200,569.3754272460938000,4.1949667930603030,55.1945114135742200,55,102,101,76,83,15553,0,0,0,0,2147120722,2147773531,2147575725,2147574116,81,3,13,53234
1343053066,5811,1020.7500000000000000,42.1119003295898440,568.6513061523438000,4.2174639701843260,55.2877616882324200,54,99,101,78,82,15553,0,0,0,0,2147123565,2147771337,2147578130,2147569088,3542,3,13,61403
1343056666,5812,1017.9500122070312000,42.7057304382324200,569.3035888671875000,4.1971988677978520,55.2100105285644500,55,100,102,77,82,15552,0,0,0,0,2147123794,2147777252,2147571346,2147573467,73,3,13,38723
1343060266,5812,1021.0599975585938000,42.7186393737793000,569.0565795898438000,4.2048740386962890,55.2028617858886700,55,99,101,78,83,15550,0,0,0,0,2147125046,2147768758,2147574994,2147572955,74,3,13,27808
1343063866,5808,1022.9699707031250000,42.5323715209960940,568.7471923828125000,4.2144851684570310,55.2255210876464840,54,100,102,79,84,15551,0,0,0,0,2147124809,2147777444,2147576374,2147573531,3592,3,13,46725
1343067466,5813,1021.7899780273438000,41.3265686035156250,568.6190185546875000,4.2184700965881350,55.4038200378418000,55,107,101,79,82,15554,0,0,0,0,2147126098,2147776502,2147574948,2147574034,53,3,13,4886
1343071066,5810,1012.0300292968750000,42.4514503479003900,569.6937866210938000,4.1850738525390625,55.2515106201171900,55,101,101,79,81,15554,0,0,0,0,2147124306,2147774528,2147574262,2147573805,481,3,13,24211
1343074666,5813,1012.1400146484375000,42.5370101928710940,569.6510009765625000,4.1864051818847660,55.2393913269043000,56,103,100,78,83,15551,0,0,0,0,2147124068,2147773961,2147575744,2147572562,574,3,13,15430
1343078266,5809,1007.1400146484375000,42.2472496032714840,570.9337158203125000,4.1465420722961430,55.2914695739746100,55,99,101,77,83,15553,0,0,0,0,2147124086,2147778660,2147574774,2147573805,297,3,13,53510
1343081866,5810,1001.6799926757812000,42.9141616821289060,571.7111206054688000,4.1223769187927250,55.2093811035156250,55,98,101,79,82,15551,0,0,0,0,2147123044,2147773312,2147574390,2147570285,462,3,13,59145
1343085466,5807,1005.2500000000000000,43.0416488647460940,572.2274780273438000,4.1063189506530760,55.1915702819824200,54,103,103,78,84,15551,0,0,0,0,2147123684,2147775433,2147576493,2147570322,3062,3,13,50186
1343089066,5810,1011.9600219726562000,43.5677680969238300,572.5117187500000000,4.0974831581115720,55.1209793090820300,55,99,101,78,83,15550,0,0,0,0,2147123510,2147778633,2147575917,2147570569,3051,3,13,39000
1343092666,5808,1025.6700439453125000,43.3786010742187500,570.7360229492188000,4.1526870727539060,55.1295700073242200,56,99,102,78,82,15549,0,0,0,0,2147122688,2147771154,2147574985,2147572818,2840,3,13,36608
1343096266,5808,1022.8699951171875000,42.4026107788085940,569.5740966796875000,4.1887950897216800,55.2577705383300800,55,99,103,78,84,15547,0,0,0,0,2147125037,2147777325,2147575360,2147573915,328,3,13,39497
1343099866,5808,1029.2800292968750000,41.9981498718261700,568.3145751953125000,4.2279238700866700,55.2987098693847660,55,101,103,80,83,15545,0,0,0,0,2147124132,2147771373,2147577188,2147571858,65,3,13,44342
1343103466,5808,1027.7800292968750000,42.0569381713867200,568.2000732421875000,4.2314820289611820,55.2937583923339840,56,100,102,78,84,15543,0,0,0,0,2147125686,2147770157,2147576466,2147572882,267,3,13,9142
1343107066,5809,1025.7800292968750000,42.1754989624023440,568.3673706054688000,4.2262840270996090,55.2780418395996100,55,102,101,77,84,15545,0,0,0,0,2147123410,2147770121,2147578066,2147571693,198,3,13,13307
1343110666,5808,1026.2800292968750000,41.8384819030761700,568.6060180664062000,4.2188739776611330,55.3268013000488300,55,98,103,78,84,15500,0,0,0,0,2147122212,2147770486,2147573970,2147573723,98,3,13,60945
1343114266,5810,1021.3800048828125000,41.5810203552246100,569.3441162109375000,4.1959438323974610,55.3752098083496100,55,99,102,79,82,15506,0,0,0,0,2147120795,2147772781,2147576201,2147571904,248,3,13,50375
1343117866,5808,1017.3300170898438000,41.5383300781250000,570.1384887695312000,4.1712570190429690,55.3859405517578100,56,99,101,78,84,15508,0,0,0,0,2147121526,2147777014,2147576018,2147573878,272,3,13,15599
1343121466,5808,1017.3499755859375000,42.9797706604003900,571.0383300781250000,4.1432909965515140,55.1866493225097660,54,100,101,78,81,15509,0,0,0,0,2147122084,2147772544,2147576932,2147574930,468,3,13,14925
1343125066,5807,1009.5800170898438000,42.4121398925781250,571.8792724609375000,4.1171441078186035,55.2804603576660160,56,100,102,77,83,15508,0,0,0,0,2147122340,2147774089,2147573330,2147571008,723,3,13,6734
1343128666,5806,1014.9400024414062000,42.9944000244140600,571.9597778320312000,4.1146430969238280,55.1951484680175800,55,98,101,78,83,15507,0,0,0,0,2147124909,2147774976,2147574491,2147574528,196,3,13,48293
1343132266,5813,1016.5300292968750000,42.5209884643554700,571.9240722656250000,4.1157507896423340,55.2675590515136700,55,99,103,79,84,15505,0,0,0,0,2147123940,2147767067,2147573750,2147568987,102,3,13,1197
1343135866,5807,1016.3400268554688000,42.6966781616210940,571.2410278320312000,4.1369900703430180,55.2286491394043000,54,99,101,78,82,15505,0,0,0,0,2147122587,2147766089,2147576292,2147571026,3584,3,13,22130
1343139466,5809,1024.5400390625000000,42.7938995361328100,570.9738769531250000,4.1452918052673340,55.2165718078613300,55,100,101,78,84,15475,0,0,0,0,2147122066,2147773869,2147576466,2147573074,354,3,13,10686
1343143066,5808,1027.5699462890625000,42.1609001159668000,569.9290161132812000,4.1777691841125490,55.2993888854980500,55,99,101,76,82,15541,0,0,0,0,2147122962,2147769600,2147577298,2147573403,34,3,13,7751
1343146666,5808,1021.5900268554688000,42.0925712585449200,569.9375000000000000,4.1775040626525880,55.3083305358886700,56,101,101,78,83,15541,0,0,0,0,2147123940,2147772050,2147579163,2147570194,225,3,13,21185
1343150266,5809,1026.7800292968750000,42.0078506469726560,569.6364746093750000,4.1868548393249510,55.3117485046386700,54,98,102,80,82,15539,0,0,0,0,2147121261,2147773659,2147574994,2147572150,78,3,13,45136
1343153866,5811,1024.6999511718750000,42.2087097167968750,569.7111816406250000,4.1845359802246090,55.2847290039062500,55,100,101,77,84,15538,0,0,0,0,2147123108,2147773705,2147572818,2147574244,185,3,13,62181
1343157466,5809,1028.5500488281250000,42.6926498413085940,569.8961791992188000,4.1787872314453125,55.2154808044433600,55,104,101,78,83,15535,0,0,0,0,2147122093,2147771666,2147572425,2147570861,3594,3,13,6616
1343157956,5811,1023.3800048828125000,42.5990600585937500,569.8234863281250000,4.1810460090637210,55.2278213500976560,54,99,101,79,83,15535,0,0,0,0,2147121673,2147773513,2147574089,2147573686,50,3,13,29890
